Weather History for Spokane, WA

Change the Weather History Date:

Thursday, March 22, 2012

  Actual Average Record
Temperature  
Mean Temperature 33 °F 42 °F  
Max Temperature 37 °F 51 °F 71 °F (1939)
Min Temperature 29 °F 33 °F 11 °F (1898)
Degree Days  
Heating Degree Days 32 23  
Month to date heating degree days 606 571  
Since 1 July heating degree days 5285 5400  
Cooling Degree Days 0 0  
Month to date cooling degree days 0 0  
Year to date cooling degree days 0 0  
Moisture  
Dew Point 30 °F    
Average Humidity 88    
Maximum Humidity 100    
Minimum Humidity 75    
Precipitation  
Precipitation 0.28 in 0.05 in 0.41 in (1886)
Month to date precipitation 2.69 1.15  
Year to date precipitation 6.18 4.27  
Snow  
Snow 2.50 in 0.10 in 2.50 in (2012)
Month to date snowfall 5.5 2.6  
Since 1 July snowfall 35.7 42.9  
Snow Depth 3.00 in    
Sea Level Pressure  
Sea Level Pressure 29.90 in    
Wind  
Wind Speed 7 mph (West)    
Max Wind Speed 22 mph    
Max Gust Speed 26 mph    
Visibility 4 miles    
Events Fog , Snow    
T = Trace of Precipitation, MM = Missing Value Source: NWS Daily Summary

Daily Weather History Graph

Daily Weather History Graph

Search for Another Location

Airport:

Trip Planner

Search our weather history database for the weather conditions in past years. The results will help you decide how hot, cold, wet, or windy it might be!

Date:

Astronomy

Mar. 22, 2012 Rise Set
Actual Time 6:47 AM PDT 7:06 PM PDT
Civil Twilight 6:17 AM PDT 7:37 PM PDT
Nautical Twilight 5:40 AM PDT 8:13 PM PDT
Astronomical Twilight 5:03 AM PDT 8:51 PM PDT
Moon 6:25 AM PDT (3/22) 7:42 PM PDT (3/22)
Length of Visible Light 13h 20m
Length of Day
12h 18m
New Moon, 0% of the Moon is Illuminated
Mar 22
New Moon
Mar 30
First Quarter
Apr 6
Full
Apr 13
Last Quarter
Apr 21
New

Hourly Weather History & Observations

Time (PDT) Temp. Windchill Dew Point Humidity Pressure Visibility Wind Dir Wind Speed Gust Speed Precip Events Conditions
12:53 AM 32.0 °F 26.4 °F 30.9 °F 96% 29.78 in 0.8 mi NE 5.8 mph - 0.05 in Snow Light Snow
1:16 AM 30.2 °F 23.4 °F 30.2 °F 100% 29.71 in 1.0 mi NE 6.9 mph - 0.04 in Snow Light Snow
1:28 AM 30.2 °F 23.4 °F 30.2 °F 100% 29.71 in 1.0 mi NE 6.9 mph - 0.05 in Snow Light Snow
1:53 AM 30.9 °F 25.2 °F 30.9 °F 100% 29.76 in 1.0 mi NE 5.8 mph - 0.07 in Snow Light Snow
2:34 AM 30.2 °F 26.7 °F 30.2 °F 100% 29.69 in 1.0 mi NNE 3.5 mph - 0.03 in Snow Light Snow
2:53 AM 30.9 °F 25.2 °F 30.9 °F 100% 29.72 in 1.0 mi NE 5.8 mph - 0.04 in Snow Light Snow
3:53 AM 32.0 °F 24.8 °F 30.9 °F 96% 29.70 in 0.8 mi ENE 8.1 mph - 0.03 in Snow Light Snow
4:53 AM 32.0 °F 27.5 °F 30.2 °F 93% 29.63 in 0.5 mi NNE 4.6 mph - N/A Fog Fog
5:43 AM 32.0 °F 25.6 °F 30.2 °F 93% 29.69 in 0.5 mi West 6.9 mph - 0.05 in Snow Light Snow
5:53 AM 32.0 °F 26.4 °F 30.9 °F 96% 29.74 in 0.5 mi West 5.8 mph - 0.09 in Snow Light Snow
6:18 AM 32.0 °F 27.5 °F 30.2 °F 93% 29.71 in 1.5 mi WSW 4.6 mph - 0.01 in Snow Light Snow
6:53 AM 30.9 °F 23.5 °F 30.9 °F 100% 29.79 in 1.5 mi WSW 8.1 mph - 0.03 in Snow Light Snow
7:53 AM 32.0 °F 23.0 °F 30.9 °F 96% 29.85 in 1.5 mi SW 11.5 mph - 0.01 in Snow Light Snow
8:53 AM 32.0 °F 21.2 °F 30.0 °F 92% 29.92 in 1.5 mi SW 16.1 mph - 0.00 in Snow Light Snow
9:49 AM 32.0 °F 21.2 °F 28.4 °F 87% 29.90 in 2.0 mi SW 16.1 mph - 0.00 in Snow Light Snow
9:53 AM 32.0 °F 20.5 °F 30.0 °F 92% 29.96 in 2.0 mi SW 18.4 mph - 0.00 in Snow Light Snow
10:47 AM 30.2 °F 17.8 °F 30.2 °F 100% 29.95 in 2.0 mi SW 19.6 mph 26.5 mph 0.00 in   Overcast
10:53 AM 30.9 °F 19.1 °F 30.0 °F 96% 30.01 in 2.0 mi SSW 18.4 mph 25.3 mph 0.00 in   Overcast
11:19 AM 30.2 °F 19.8 °F 30.2 °F 100% 29.97 in 1.0 mi SSW 13.8 mph - 0.00 in Snow Light Snow
11:23 AM 30.2 °F 19.8 °F 30.2 °F 100% 29.97 in 2.0 mi SW 13.8 mph - 0.00 in Snow Light Snow
11:41 AM 32.0 °F 23.0 °F 30.2 °F 93% 29.98 in 1.5 mi SW 11.5 mph - 0.00 in Snow Light Snow
11:53 AM 32.0 °F 22.5 °F 30.0 °F 92% 30.04 in 2.0 mi SSW 12.7 mph - 0.00 in Snow Light Snow
12:53 PM 32.0 °F 24.8 °F 30.0 °F 92% 30.07 in 2.0 mi SSW 8.1 mph - 0.01 in Snow Light Snow
12:57 PM 32.0 °F 25.6 °F 30.2 °F 93% 30.01 in 3.0 mi SW 6.9 mph - 0.00 in   Overcast
1:36 PM 33.8 °F 27.0 °F 30.2 °F 87% 30.00 in 3.0 mi South 8.1 mph - 0.00 in Snow Light Snow
1:53 PM 33.1 °F 27.7 °F 30.0 °F 89% 30.06 in 7.0 mi SW 5.8 mph - 0.00 in   Overcast
2:53 PM 34.0 °F 29.8 °F 30.0 °F 85% 30.06 in 10.0 mi South 4.6 mph - 0.00 in Snow Light Snow
3:53 PM 34.0 °F - 28.9 °F 82% 30.05 in 7.0 mi Calm Calm - 0.00 in Snow Light Snow
4:53 PM 37.0 °F 34.5 °F 28.9 °F 73% 30.03 in 10.0 mi North 3.5 mph - 0.00 in   Mostly Cloudy
5:53 PM 36.0 °F 32.1 °F 28.0 °F 73% 30.03 in 10.0 mi NE 4.6 mph - N/A   Scattered Clouds
6:43 PM 33.8 °F 30.8 °F 28.4 °F 81% 29.96 in 10.0 mi NNE 3.5 mph - N/A   Mostly Cloudy
6:53 PM 34.0 °F 28.8 °F 28.9 °F 82% 30.02 in 10.0 mi NNE 5.8 mph - N/A   Mostly Cloudy
7:34 PM 33.8 °F 28.6 °F 28.4 °F 81% 29.94 in 10.0 mi NE 5.8 mph - N/A   Scattered Clouds
7:53 PM 32.0 °F 26.4 °F 28.9 °F 88% 30.00 in 10.0 mi NNE 5.8 mph - N/A   Scattered Clouds
8:53 PM 30.9 °F 27.5 °F 28.9 °F 92% 29.99 in 10.0 mi NNE 3.5 mph - N/A   Scattered Clouds
9:53 PM 30.0 °F 25.2 °F 28.0 °F 92% 29.96 in 10.0 mi North 4.6 mph - N/A   Mostly Cloudy
10:53 PM 30.0 °F - 28.0 °F 92% 29.96 in 10.0 mi Calm Calm - N/A   Mostly Cloudy
11:53 PM 30.0 °F 25.2 °F 28.0 °F 92% 29.96 in 10.0 mi NW 4.6 mph - N/A   Overcast